This demonstration page uses our WeatherBlox Daily Observations layout. Learn more.

Hourly Observations for October 12, 2019

Temp ( °F °C ) Dew Point ( °F °C ) Humidity (%) Winds ( mph kmh ) Pressure ( in mb ) Visibility ( mi km ) Precip ( " mm )
12:54 am 00:54 Clear 31 -0.6 23 -5 72 72 SW 3 6 30.12 1020 10 16.09344 0 0
1:54 am 01:54 Clear 30 -1.1 23 -5 75 75 Calm 30.12 1020 10 16.09344 0 0
2:54 am 02:54 Clear 31 -0.6 23 -5 72 72 SW 3 6 30.09 1019 10 16.09344 0 0
3:54 am 03:54 Clear 28 -2.2 22 -5.6 78 78 SSW 3 6 30.09 1019 10 16.09344 0 0
4:54 am 04:54 Clear 31 -0.6 23 -5 72 72 SW 12 19 30.09 1019 10 16.09344 0 0
5:54 am 05:54 Clear 31 -0.6 23 -5 72 72 WSW 10 17 30.06 1018 10 16.09344 0 0
6:54 am 06:54 Clear 32 0 23 -5 69 69 SW 8 13 30.06 1018 10 16.09344 0 0
7:54 am 07:54 Sunny 31 -0.6 23 -5 72 72 W 3 6 30.06 1018 10 16.09344 0 0
8:54 am 08:54 Sunny 34 1.1 25 -3.9 70 70 SSW 6 9 30.06 1018 10 16.09344 0 0
9:54 am 09:54 Sunny 40 4.4 26 -3.3 58 58 SW 9 15 30.03 1017 10 16.09344 0 0
10:54 am 10:54 Sunny 47 8.3 25 -3.9 42 42 WNW 12 19 30 1016 10 16.09344 0 0
11:54 am 11:54 Sunny 50 10 26 -3.3 39 39 W 12 19 29.97 1015 10 16.09344 0 0
12:54 pm 12:54 Sunny 54 12.2 26 -3.3 34 34 WSW 16 26 29.94 1014 10 16.09344 0 0
1:54 pm 13:54 Sunny 57 13.9 25 -3.9 29 29 W 16 26 29.91 1013 10 16.09344 0 0
2:54 pm 14:54 Sunny 60 15.6 23 -5 24 24 W 16 26 29.88 1012 10 16.09344 0 0
3:54 pm 15:54 Sunny 62 16.7 19 -7.2 19 19 W 20 31 29.88 1012 10 16.09344 0 0
4:54 pm 16:54 Sunny 61 16.1 19 -7.2 20 20 W 20 31 29.85 1011 10 16.09344 0 0
5:54 pm 17:54 Sunny 61 16.1 20 -6.7 20 20 W 15 24 29.85 1011 10 16.09344 0 0
6:54 pm 18:54 Clear 56 13.3 22 -5.6 27 27 W 8 13 29.88 1012 10 16.09344 0 0
7:54 pm 19:54 Clear 52 11.1 21 -6.1 30 30 WNW 8 13 29.88 1012 10 16.09344 0 0
8:54 pm 20:54 Clear 48 8.9 20 -6.7 33 33 NW 7 11 29.91 1013 10 16.09344 0 0
9:54 pm 21:54 Clear 42 5.6 21 -6.1 43 43 N 6 9 29.91 1013 10 16.09344 0 0
10:54 pm 22:54 Clear 40 4.4 24 -4.4 53 53 Calm 29.91 1013 10 16.09344 0 0
11:54 pm 23:54 Clear 41 5 24 -4.4 51 51 W 3 6 29.91 1013 10 16.09344 0 0

Powered by AerisWeather